Погода в Малке

Россия / Кабардино-Балкарская Республика     43°47′57″N   43°19′36″E
темп.,
°C
ветер,
м/с
пор.,
м/с
влажн.,
%
обл.,
%
осадки,
мм/ч
давл.,
гПа
погр.,
м
15 июня, вт
вт1500:00+15юв1191100 0.0 101011
03:00+15ю2288100 0.0 100912
06:00+16ююз1287100 0.0 100946
09:00+19в34778 0.0 1009511
12:00+22всв327369 0.0 10101053
15:00+22в327479 0.2 1010966
18:00+21в238316 0.5 1011498
21:00+17ююз22904 0.6 101211
16 июня, ср
ср1600:00+16юз32861 0.0 101119
03:00+15юз32840 0.0 101219
06:00+16юз33830 0.0 101157
09:00+21вюв58797 0.0 1010693
12:00+23вюв787343 0.0 10091154
15:00+23в687476 0.1 10081055
18:00+22вюв597932 0.1 1008555
21:00+19ю22879 0.1 100813
17 июня, чт
чт1700:00+16юв1191100 0.0 100711
03:00+15зюз11884 0.0 100611
06:00+17зсз35880 0.0 1009186
09:00+18сз6109120 1.0 1011612
12:00+21сз8127311 0.8 10121063
15:00+22ссз787497 0.9 10141183
18:00+20зсз598289 0.4 1015445
21:00+17з388380 0.5 1017217
18 июня, пт
пт1800:00+17сз398591 0.0 1017357
03:00+16з488580 0.0 1018237
06:00+16з2385100 0.1 101955
09:00+18ссз348480 0.2 1020571
12:00+20св328262 0.3 1019660
15:00+20всв348381 2.1 1019773
18:00+19в359112 2.9 1019381
21:00+17юв269498 4.4 1020169
19 июня, сб
сб1900:00+17вюв289389 0.1 1020250
03:00+15юв11930 0.1 101911
06:00+17юв210931 0.0 1020328
09:00+20вюв811740 0.0 10201010
12:00+21вюв911654 0.0 10201258
15:00+23юв8126833 0.0 10181699
18:00+21вюв6127273 0.0 1018671
21:00+17вюв613700 0.0 1019478